User: anonymous   Login
Location: Béaulencourt
(50.0796°N, 2.8795°E)
Time: 03:37:55
(UTC+00:00)
Language:

ARIANE 6 FM1 Upper Stage - Orbit

View from above orbital plane
View from above orbital plane
View from above satellite
View from above satellite

Ground track
Ground track

The orbit is defined by the following mean orbital elements,

1 60235U          26107.95178690 +.00000000 +00000-0 +12009-3 0 00005
2 60235  61.9934  80.7149 0057135 121.5850 239.0835 15.00857232    05
Epoch (UTC): 17 April 2026 22:50:34
Eccentricity: 0.0057135
inclination: 61.9934°
perigee height: 525 km
apogee height: 604 km
right ascension of ascending node: 80.7149°
argument of perigee: 121.5850°
revolutions per day: 15.00857232
mean anomaly at epoch: 239.0835°

The dashed part of the orbit path shows where the satellite is in the earth's shadow,  

DLR